Showing default

FLOCK 4G 7, 62624

Orbit data source: Space-Track

FLOCK 4G 7, 62624 is a payload satellite owned by Planet (US) in SSO that was launched on Tue, 14 Jan 2025 UTC via an FALCON 9 launch vehicle from the Air Force Western Test Range (AFWTR). Payload-class satellites include a variety of spacecraft equipped with specific instruments for various scientific and technological missions. These include communications satellites like Starlink; space stations such as the ISS; scientific satellites like the Hubble; Earth observation satellites from companies like Planet Labs, Umbra, and HawkEye 360; GPS; miniature CubeSats for education and research; and military/defense satellites.

Loading next visibility...
Identifier
62624, 2025-009R
Orbit
SSO
Country
Flag of USUS
Related business
Manufacturer
Planet
Mission
Operational Commercial Imaging
Bus & Motor
CUBESAT 3U, Unknown motor
Mass
5.7 kg wet, 5.7 kg dry
Launch date (UTC)
2025-01-14 (9 months ago)
Launch vehicle
FALCON 9
Launch site
Air Force Western Test Range (AFWTR)
Object type
Payload
Rocket body
Debris
Shape & HBR
Box + 2 Pan, 1.0 m
Radar Cross Section
0.072 m², Medium (>0.1 m² and < 1m²)

Expand to show TLE details & history
Last TLE update: 1 day ago

TLE from 1 day ago
0 FLOCK 4G 7
1 62624U 25009R   25296.48799680  .00014059  00000-0  59516-3 0  9999
2 62624  97.4166  14.8905 0004337  88.3659 271.8075 15.23280116 42799
Epoch: 2025-10-23T11:42Z
TLE epoch observation values (Epoch: 2025-10-23T11:42:42.923Z)
Latitude
0.00001°
Longitude
167.06512°
Altitude
498.956 km
Speed
7.615 km/s
True Right ascension
00h 59m 33s
True Declination
0° 00' 00"
Sunlit
Object was in full shadow at epoch
Visualization orbit readout
Latitude
Unknown
Longitude
Unknown
Altitude
Unknown
Speed
Unknown
Apparent Right ascension
Unknown
Apparent Declination
Unknown
Sunlit
N/A
Visualization observer readout
Local Sidereal Time
08:03:42
Azimuth
Unknown
Elevation
Unknown
Doppler factor
Unknown
Orbital elements
Apogee altitude
495.897 km
Perigee altitude
489.937 km
Semi-major axis
6,871.054 km
Eccentricity
0.00043
Inclination
97.4166°
RAAN
14.8905°
Arg. of periapsis
88.3659°
True anomaly
271.75783°
Mean anomaly
271.8075°
Eccentric anomaly
271.78266°
Mean motion
3.81073 °/min
Orbital period
94.47 mins
BSTAR
0.00059516
Loading maneuver chart data...
Computing Atmospheric mass density...
Loading historical data...
Loading historical data...
Loading historical data...
Loading historical data...
Loading historical data...
Loading historical data...
Loading historical data...

Documentation

Showing up to 5 results
|